星链-5100 (STARLINK-5100 )

导读 | 豆包AI

STARLINK-5100是美国SpaceX公司星链星座的成员卫星,于2023年2月2日发射。它运行在低地球轨道,属于星链全球卫星互联网项目,承担为偏远、基础设施匮乏地区提供高速低延迟宽带互联网接入的任务,推动全球网络覆盖,助力弥合数字鸿沟,同时星链项目也在持续扩展星座规模,提升服务能力,不过也引发了太空安全等方面的讨论。

Basic Information
目录编号:
55495
目录名称:
STARLINK-5100
国际标识:
2023-015AY
轨道中心:
EARTH
卫星名称:
星链-5100
卫星全名:
星链-5100 (STARLINK-5100 )
卫星状态:
在轨 (已飞行1137 天)
发射日期:
2023-02-02 UTC
国别 :
美国 (US)
星等 :
--
Orbit Information
数据来源 国际轨道数据 AOE轨道数据
星历时间 2026-03-15T15:22:53+0800
9小时前
查看轨道信息
2026-03-13T05:00:00+0800
2天前
查看轨道信息
半长轴 6937.212km 6937.204km
偏心率 0.0001128 0.0001095
轨道倾角 43.004° 43.004°
近地点辐角 262.836° 275.483°
升交点赤经 282.922° 296.141°
平近点角 97.235° 231.436°
近地点 558.292km 558.307km
远地点 559.858km 559.827km
周期 95.838分钟 95.838分钟
每日圈数 15.025375 15.025403
Detailed Information
固有亮度:
5
最大亮度:
2.5
卫星平台:
Starlink v1.5
覆盖范围:
全球
运营商:
太空探索技术公司
运营商所在国:
美国
制造商(研发单位):
太空探索技术公司
制造商所在国:
美国
使用方式:
暂无
Satellite Introduction
星链(Starlink)计划是由太空探索技术公司(SpaceX)提出的一个巨型低轨卫星互联网星座项目,计划在2019年至2024年间在太空搭建由约1.2万颗卫星组成的“星链”网络,其中1584颗将部署在地球上空550千米处的近地轨道,并从2020年开始工作。该卫星仍在工作。
2D Orbit Map
3D Orbit Map
Orbit Altitude Analysis Chart
Orbit Inclination Analysis Chart
Orbit Comprehensive Analysis Chart
View Comprehensive Chart